Temperature
6 4 4 5 5 6 6 5 5 5 4 4 3 3 4 4 3 3 4 4 5 5 6 6 6 6 6 6 6 5 6 6 6 5 5 5 6 6 6 6 6 6 6 6
4 4 4 5 5 5 5 5 4 4 4 4 3 3 3 3 2 3 3 3 4 5 5 6 6 6 5 5 5 5 5 5 5 5 5 5 5 5 5 5 5 5 5 5
5 4 4 5 5 5 5 4 4 4 3 3 3 3 3 3 3 3 3 3 4 4 5 5 5 5 5 5 5 5 5 5 5 4 4 4 4 4 5 5 5 5 5 5
3 3 4 4 4 4 5 4 4 3 3 2 2 3 3 2 2 2 2 3 3 4 4 4 4 5 5 5 5 4 4 4 4 4 4 4 4 4 4 4 4 4 4 4
3 3 3 4 3 4 3 3 3 3 2 1 1 1 2 1 2 2 2 2 3 3 3 4 4 4 4 4 4 4 4 4 4 3 3 3 4 4 4 4 4 4 4 4
2 2 2 2 2 3 2 2 2 1 1 2 1 1 2 1 1 1 1 2 2 3 3 3 3 3 4 4 4 3 3 3 3 3 3 3 3 3 3 3 3 3 3 3
3 2 2 2 2 2 2 2 2 2 1 2 1 1 1 1 0 0 0 1 2 2 2 3 3 3 3 3 3 3 3 3 3 3 3 2 2 2 2 2 3 3 3 3
2 2 1 1 2 1 1 2 3 3 2 1 0 1 1 0 -0 0 0 1 1 2 2 2 2 2 2 3 2 2 2 2 2 2 2 2 2 2 2 2 2 2 2 2
1 2 1 1 1 1 1 0 1 1 -0 0 0 -1 -0 -0 -1 -1 -1 0 1 1 1 1 1 2 2 2 2 2 2 2 2 2 2 2 1 1 1 1 1 1 1 1
0 0 0 -0 1 0 0 -0 -1 0 1 2 1 -0 0 -0 -1 -1 -2 -1 -0 1 1 1 1 1 1 1 1 1 1 1 1 1 1 1 1 1 1 1 1 1 1 1
-1 -0 -1 -1 -1 -1 -1 -1 -1 -1 -1 0 1 1 -1 -1 -1 -2 -2 -1 -1 -0 0 0 0 0 1 1 1 1 1 1 1 1 0 0 0 -0 -0 -0 -0 -0 -0 -0
-2 -2 -2 -2 -2 -2 -2 -2 -2 -0 -1 -2 -1 -0 -2 -3 -3 -3 -3 -2 -2 -1 -1 -1 -1 -0 -0 0 0 0 0 -0 -0 -0 -0 -0 -1 -1 -1 -1 -1 -1 -1 -1
-2 -2 -1 -1 -1 -3 -3 -3 -3 -3 -3 -3 -1 -0 -2 -4 -3 -3 -3 -3 -2 -2 -2 -1 -1 -1 -1 -1 -0 -0 -0 -0 -1 -1 -1 -1 -1 -1 -1 -1 -2 -2 -2 -2
-2 -3 -2 -1 -1 -3 -3 -4 -4 -3 -3 -3 -3 -2 -2 -3 -3 -3 -3 -3 -3 -3 -3 -3 -2 -2 -2 -1 -1 -1 -1 -1 -1 -1 -1 -1 -1 -2 -2 -2 -2 -2 -2 -2
-3 -3 -4 -3 -3 -3 -3 -4 -4 -4 -3 -3 -3 -3 -3 -3 -4 -4 -3 -4 -4 -4 -4 -4 -3 -3 -3 -2 -2 -2 -2 -2 -2 -2 -2 -2 -2 -2 -2 -3 -3 -3 -3 -3
-5 -4 -4 -4 -3 -4 -4 -4 -4 -4 -4 -5 -4 -4 -4 -4 -4 -5 -4 -4 -4 -4 -4 -4 -4 -4 -3 -3 -3 -3 -2 -3 -3 -2 -3 -3 -3 -3 -3 -3 -3 -3 -3 -3
-5 -5 -4 -4 -4 -4 -3 -4 -5 -5 -6 -5 -4 -4 -5 -6 -6 -5 -5 -5 -5 -5 -5 -4 -4 -4 -4 -4 -4 -3 -3 -3 -3 -3 -3 -3 -4 -4 -3 -4 -4 -4 -4 -4
-5 -5 -5 -4 -4 -3 -2 -5 -5 -5 -5 -6 -6 -6 -6 -6 -5 -5 -5 -5 -5 -5 -5 -5 -5 -4 -4 -4 -4 -4 -4 -4 -4 -4 -4 -4 -4 -4 -4 -4 -4 -5 -5 -5
-6 -5 -5 -5 -4 -4 -3 -5 -6 -6 -5 -6 -7 -7 -6 -6 -6 -5 -5 -5 -5 -6 -5 -5 -5 -5 -5 -5 -5 -5 -5 -5 -5 -5 -5 -5 -5 -5 -5 -5 -5 -5 -5 -5
-6 -6 -5 -5 -4 -4 -3 -6 -6 -5 -5 -6 -7 -7 -7 -7 -6 -6 -5 -6 -6 -6 -6 -6 -6 -5 -5 -5 -5 -5 -5 -5 -5 -5 -5 -5 -6 -6 -6 -6 -6 -6 -6 -6
-6 -7 -6 -6 -5 -5 -6 -7 -6 -4 -4 -6 -6 -6 -7 -7 -7 -6 -6 -6 -6 -6 -6 -6 -6 -6 -6 -6 -6 -6 -6 -6 -6 -6 -6 -6 -6 -6 -6 -6 -7 -7 -7 -7
-6 -7 -7 -7 -6 -5 -7 -8 -7 -6 -6 -6 -6 -6 -7 -7 -7 -7 -7 -7 -7 -7 -7 -7 -7 -6 -6 -6 -6 -6 -6 -6 -6 -7 -6 -6 -7 -7 -7 -7 -7 -7 -7 -8
-8 -7 -7 -7 -5 -6 -7 -7 -6 -6 -6 -6 -7 -7 -7 -7 -7 -8 -8 -8 -8 -8 -8 -7 -7 -7 -7 -7 -7 -7 -7 -7 -7 -7 -7 -7 -7 -7 -8 -8 -8 -8 -8 -8
-9 -9 -9 -8 -8 -8 -7 -7 -6 -6 -7 -7 -7 -7 -7 -8 -8 -8 -8 -8 -8 -8 -8 -8 -8 -8 -7 -7 -7 -7 -8 -8 -8 -8 -8 -8 -8 -8 -8 -8 -9 -9 -9 -9
-9 -10 -10 -9 -9 -8 -7 -7 -7 -7 -7 -7 -7 -8 -8 -8 -8 -9 -9 -9 -9 -8 -8 -8 -8 -8 -8 -8 -8 -8 -8 -8 -8 -8 -8 -9 -9 -9 -9 -9 -9 -9 -9 -10
-10 -10 -9 -8 -8 -9 -7 -7 -7 -8 -8 -8 -8 -8 -8 -8 -9 -9 -9 -9 -9 -9 -9 -9 -9 -9 -9 -8 -8 -8 -9 -9 -9 -9 -9 -9 -9 -10 -10 -10 -10 -10 -10 -10
Wind_Speed
2 3 4 7 7 4 4 4 4 3 1 1 6 8 8 5 3 5 5 5 5 6 5 2 3 3 3 3 4 4 4 3 3 2 2 2 1 1 0 1 1 2 2 3
3 3 5 2 3 3 3 4 4 3 1 2 4 8 7 5 4 4 5 5 5 4 3 2 2 3 3 4 4 4 5 4 4 3 2 1 1 2 1 0 0 1 2 2
6 3 2 2 2 4 5 6 5 4 3 2 3 6 5 3 2 3 3 4 4 4 4 3 2 3 3 4 5 4 4 4 4 3 2 1 1 1 1 1 1 1 1 2
2 3 1 2 2 4 7 4 4 3 1 4 0 5 6 4 4 4 4 4 4 3 3 3 3 3 4 5 4 4 4 3 3 3 4 4 3 2 3 2 2 1 2 2
2 1 0 2 3 3 3 1 2 3 3 3 1 3 7 2 4 5 5 5 5 4 4 4 3 4 4 3 3 3 3 3 3 3 5 5 4 3 1 2 2 2 1 2
1 0 0 2 1 1 2 2 3 2 2 5 6 5 7 4 5 5 5 5 5 5 4 4 2 1 1 1 2 3 3 3 3 4 4 5 5 4 2 2 3 2 2 2
3 2 1 1 1 2 2 3 2 2 1 6 3 4 8 5 3 4 6 6 5 4 3 3 2 1 1 1 1 2 3 3 3 3 4 4 5 4 5 4 4 3 3 2
1 4 2 1 1 2 2 4 5 5 5 4 1 6 6 3 2 3 3 4 5 4 4 3 3 2 2 2 1 2 3 3 3 4 4 4 4 3 3 4 3 4 4 4
2 4 2 2 1 2 2 2 2 3 0 3 5 5 5 2 4 5 5 5 6 5 5 4 3 2 2 2 2 3 3 3 3 4 4 4 4 3 4 3 3 3 3 3
2 3 3 2 1 2 1 3 3 3 3 4 5 4 4 4 5 6 6 6 6 5 5 5 4 3 2 2 2 2 2 3 3 3 3 3 4 4 3 3 4 4 4 4
1 2 3 2 1 2 1 2 2 2 3 4 4 5 3 3 3 4 6 6 6 6 5 5 4 3 3 2 2 1 1 1 1 2 3 3 3 3 3 4 4 4 3 4
1 2 2 4 2 1 2 3 3 3 4 3 3 6 2 1 3 3 6 6 6 6 5 5 4 4 3 3 2 2 1 1 2 2 2 2 2 2 3 4 4 3 3 4
3 3 2 4 2 3 1 1 1 1 2 3 4 6 2 4 5 5 5 7 7 7 6 6 5 4 4 3 3 2 2 2 2 1 1 1 2 2 3 4 3 3 3 3
3 2 5 7 5 3 3 3 2 3 3 5 7 8 7 8 8 8 7 6 6 6 6 6 5 5 4 4 3 2 3 2 2 1 1 2 2 3 3 3 3 4 4 3
3 2 3 5 4 2 4 5 5 6 7 7 7 7 10 8 7 6 6 6 6 7 7 6 6 5 5 4 3 3 3 2 2 1 1 2 2 2 2 2 3 3 3 4
1 2 1 3 3 2 5 6 6 7 6 7 7 10 8 6 4 5 6 6 6 7 7 7 7 6 6 5 4 3 3 2 1 1 2 2 2 2 2 3 2 3 3 3
1 2 1 4 3 3 6 6 7 4 5 6 8 8 5 5 6 6 6 6 6 7 8 7 7 6 6 6 5 4 3 2 2 2 2 2 2 2 3 3 2 3 2 2
4 3 2 1 2 5 6 0 4 5 6 6 5 5 5 6 6 5 4 4 6 7 8 8 7 7 6 5 4 3 2 2 2 2 2 3 3 3 3 2 2 3 2 2
3 4 2 2 3 7 6 1 3 4 5 4 5 6 5 5 5 3 2 3 4 6 7 7 7 7 6 5 4 2 2 2 2 3 3 3 3 3 3 3 3 2 2 2
2 2 3 2 3 6 5 2 1 2 5 2 2 4 4 4 4 6 5 6 7 7 7 7 6 6 5 5 3 1 2 2 3 3 3 3 3 2 3 3 3 2 1 2
1 1 3 4 5 7 4 2 2 2 5 3 2 3 3 3 5 7 8 8 7 7 7 6 5 5 5 5 3 2 2 4 4 3 3 3 3 3 3 2 2 1 1 1
5 4 4 4 4 6 0 3 4 4 3 3 3 4 4 5 6 7 7 8 8 8 7 6 6 6 5 4 2 3 4 4 3 3 3 3 3 2 2 2 2 1 1 1
4 5 4 5 5 2 2 3 2 2 3 4 4 5 4 5 6 7 7 7 7 7 7 6 5 6 6 4 2 3 4 4 3 3 3 3 3 3 2 2 2 2 1 1
3 1 2 3 5 4 3 2 3 3 4 5 4 5 5 5 6 7 7 7 7 7 6 5 5 6 6 5 4 3 4 3 2 2 3 3 3 3 2 2 2 2 2 2
3 2 2 4 5 5 3 2 3 4 3 4 4 4 4 4 6 6 7 7 7 7 6 5 5 6 6 6 5 4 3 2 2 2 2 3 3 2 2 2 2 2 3 3
2 3 3 5 4 3 5 4 3 3 4 5 5 6 5 4 5 6 6 6 6 6 6 6 6 6 6 6 5 4 3 2 1 2 2 2 2 2 2 2 3 4 4 6
Wind_Direction
48 93 208 221 211 211 180 197 237 250 303 229 240 260 270 273 244 252 257 252 249 250 259 231 200 184 167 169 172 179 180 168 150 159 163 164 178 166 60 101 128 141 145 148
58 241 246 228 206 209 208 231 249 283 335 267 274 273 263 255 238 235 242 249 253 269 292 265 203 177 184 189 190 189 192 185 182 187 185 184 170 179 193 150 126 155 161 158
190 246 240 176 185 210 233 223 234 251 328 1 329 297 270 269 261 279 273 253 257 255 258 253 223 207 202 204 202 203 204 196 192 174 136 125 101 102 140 188 220 248 201 175
238 288 195 169 215 204 242 231 218 213 265 280 15 287 276 272 288 286 287 285 278 272 261 255 237 222 220 221 210 202 198 193 188 176 170 170 183 204 214 207 216 246 217 197
264 319 106 218 239 202 215 213 191 184 182 280 261 231 280 290 279 277 277 276 277 273 260 254 246 229 227 216 202 197 191 189 183 187 189 188 197 201 189 179 189 210 236 215
258 345 126 237 289 207 159 89 73 79 113 260 230 199 272 245 243 274 279 285 287 287 281 274 270 235 226 197 186 178 185 196 189 188 192 197 198 188 177 202 203 215 225 236
320 327 356 23 40 23 75 108 18 336 279 251 186 200 252 255 241 250 277 296 301 298 292 288 289 268 246 220 201 185 189 207 205 197 201 205 203 197 197 211 214 213 222 232
247 286 293 341 192 200 207 167 180 216 236 273 213 229 249 270 294 307 301 309 328 324 319 304 291 271 247 229 221 211 207 217 208 207 214 210 205 205 214 216 224 223 226 230
203 259 336 352 350 145 146 201 188 150 163 268 260 275 295 330 345 349 346 346 338 330 329 323 316 316 299 266 240 226 219 225 221 217 212 208 206 209 219 220 224 234 235 237
174 254 300 319 30 30 135 149 115 152 200 256 284 269 258 299 314 329 337 337 325 328 334 335 333 325 317 302 293 259 226 225 222 216 215 219 212 218 226 224 227 236 241 233
139 194 303 355 205 225 96 115 138 154 173 189 262 270 235 235 290 303 307 319 321 322 324 324 325 328 326 335 335 322 284 260 244 231 226 214 215 223 224 228 233 235 246 239
157 144 261 262 274 323 184 186 161 182 236 200 216 266 287 260 308 309 313 323 329 325 324 326 328 338 345 342 342 337 331 293 272 259 240 231 224 227 231 240 244 241 242 246
145 120 355 333 340 3 343 275 200 156 148 190 210 261 332 354 340 335 328 327 333 335 334 335 338 338 333 329 328 327 320 305 303 288 271 269 249 238 241 247 255 253 244 248
129 156 195 224 245 222 255 266 226 180 207 231 231 263 300 318 321 324 324 326 330 331 330 331 331 327 323 321 318 317 318 320 321 322 292 273 267 257 254 253 253 251 247 243
115 204 232 254 265 228 239 250 220 212 221 226 251 258 279 298 305 312 321 330 335 335 335 332 329 324 323 324 322 320 318 323 325 326 303 283 287 286 278 268 256 253 251 250
102 183 221 273 260 249 277 266 233 235 240 242 264 271 278 301 325 329 328 330 332 330 327 326 325 326 322 317 315 316 316 315 328 318 306 313 315 306 294 285 279 269 264 262
168 157 186 263 296 327 276 245 209 216 221 204 234 257 299 313 319 316 314 323 324 324 324 323 320 314 311 309 306 297 295 311 318 309 317 324 321 312 301 298 297 283 274 273
172 166 184 252 26 250 254 199 184 211 238 218 240 277 296 289 296 296 291 301 318 323 323 320 319 317 316 311 304 298 306 312 309 317 322 321 321 314 311 309 300 296 294 278
191 178 175 175 240 273 292 249 168 204 271 230 241 283 314 326 326 310 318 327 308 308 307 307 307 309 312 312 306 308 318 321 323 318 314 310 306 307 312 308 301 305 310 309
78 145 164 171 209 246 264 305 226 114 292 303 239 276 305 351 327 303 324 322 317 315 312 312 314 318 319 317 315 312 309 310 300 299 299 299 300 298 297 295 302 315 310 306
87 125 191 204 231 261 275 294 122 160 269 321 286 279 279 265 262 289 308 315 315 314 315 316 316 317 312 314 315 305 305 295 295 303 308 311 306 297 289 291 300 302 309 328
187 185 202 183 217 258 301 114 170 233 303 307 299 294 283 287 296 302 308 314 319 320 320 322 322 318 317 316 309 302 300 298 309 313 314 316 312 306 307 313 314 314 310 329
201 199 199 199 220 274 160 201 254 285 288 296 296 301 298 300 303 309 312 313 315 314 316 320 317 315 319 317 302 292 301 312 319 323 319 317 319 321 314 301 300 307 296 282
266 262 201 251 269 271 266 278 308 300 287 294 297 301 307 301 304 309 312 315 318 317 316 318 319 318 320 321 318 295 302 313 315 315 317 318 321 321 323 311 296 292 286 280
244 178 219 263 287 309 296 275 299 315 314 315 317 311 301 298 303 305 310 313 314 318 320 320 316 313 313 320 319 315 313 314 314 311 313 316 313 306 312 315 299 289 272 264
215 189 200 243 260 248 277 297 317 313 314 313 317 322 321 308 300 308 308 310 314 318 323 324 323 322 320 322 319 316 311 299 288 299 306 301 299 300 304 309 316 303 297 298
Height
1481 1486 1488 1487 1487 1487 1489 1491 1492 1492 1492 1493 1492 1491 1487 1485 1485 1484 1483 1483 1483 1483 1485 1486 1487 1488 1490 1491 1493 1494 1496 1497 1498 1500 1501 1502 1504 1506 1508 1510 1511 1512 1514 1515
1485 1487 1485 1485 1486 1487 1489 1491 1493 1493 1493 1493 1493 1490 1484 1482 1482 1481 1480 1480 1480 1481 1481 1482 1484 1485 1486 1488 1489 1491 1492 1494 1495 1497 1498 1500 1501 1503 1505 1506 1508 1509 1511 1512
1483 1485 1484 1485 1486 1487 1488 1491 1491 1494 1494 1494 1494 1488 1483 1480 1480 1479 1478 1478 1478 1478 1478 1480 1481 1482 1483 1484 1486 1488 1489 1491 1492 1494 1495 1497 1498 1499 1501 1502 1504 1505 1507 1508
1485 1484 1484 1484 1486 1486 1487 1488 1489 1492 1496 1499 1497 1495 1483 1481 1479 1477 1476 1476 1475 1475 1476 1477 1477 1478 1480 1481 1483 1485 1486 1488 1489 1491 1492 1492 1493 1494 1496 1498 1500 1502 1503 1504
1486 1485 1485 1485 1485 1485 1487 1488 1490 1492 1496 1501 1500 1500 1485 1481 1479 1476 1474 1473 1473 1473 1474 1474 1475 1475 1477 1479 1480 1482 1483 1485 1486 1488 1489 1489 1490 1492 1493 1495 1496 1498 1499 1500
1486 1486 1486 1486 1486 1485 1487 1489 1492 1496 1498 1497 1496 1499 1486 1482 1478 1475 1473 1472 1471 1471 1472 1472 1473 1474 1475 1476 1477 1478 1480 1481 1483 1484 1485 1486 1487 1488 1489 1490 1492 1493 1495 1496
1487 1486 1486 1486 1486 1487 1488 1491 1496 1496 1500 1493 1493 1495 1485 1477 1475 1474 1472 1471 1470 1470 1470 1470 1470 1471 1472 1473 1474 1475 1477 1478 1479 1480 1481 1482 1484 1485 1486 1486 1487 1489 1490 1491
1490 1490 1488 1487 1487 1488 1490 1489 1492 1493 1493 1493 1494 1491 1481 1475 1474 1473 1472 1471 1469 1469 1469 1469 1469 1469 1469 1470 1471 1472 1473 1474 1475 1476 1477 1479 1480 1481 1482 1483 1483 1484 1485 1487
1492 1490 1488 1487 1487 1487 1489 1491 1491 1496 1501 1500 1492 1489 1480 1474 1473 1472 1471 1470 1468 1468 1468 1467 1467 1468 1468 1468 1468 1469 1470 1471 1472 1472 1473 1474 1475 1476 1477 1478 1479 1480 1481 1482
1491 1494 1490 1489 1488 1488 1489 1491 1495 1495 1493 1490 1488 1488 1481 1476 1474 1473 1471 1469 1468 1468 1467 1466 1466 1466 1466 1466 1467 1467 1467 1467 1468 1469 1469 1470 1471 1472 1473 1474 1474 1475 1476 1477
1491 1494 1494 1492 1492 1491 1492 1493 1493 1496 1495 1494 1492 1485 1478 1476 1474 1474 1471 1470 1468 1467 1466 1465 1464 1464 1464 1464 1464 1464 1464 1465 1465 1465 1466 1466 1467 1468 1469 1469 1470 1470 1471 1472
1492 1495 1496 1494 1493 1492 1491 1492 1494 1493 1494 1499 1496 1488 1475 1475 1474 1473 1471 1470 1468 1467 1466 1464 1463 1462 1461 1461 1461 1461 1461 1461 1462 1462 1462 1462 1463 1464 1464 1465 1465 1466 1466 1467
1492 1496 1497 1493 1496 1496 1495 1495 1495 1496 1497 1500 1494 1485 1475 1474 1473 1472 1471 1469 1467 1466 1464 1463 1461 1460 1459 1458 1458 1458 1458 1459 1459 1459 1459 1459 1459 1460 1460 1460 1460 1461 1461 1462
1489 1495 1495 1492 1489 1492 1496 1496 1496 1495 1495 1495 1491 1481 1476 1474 1473 1472 1470 1468 1467 1465 1464 1462 1460 1459 1458 1457 1456 1456 1456 1456 1456 1455 1455 1455 1455 1455 1456 1456 1456 1456 1457 1457
1489 1494 1495 1493 1491 1491 1491 1491 1493 1493 1489 1488 1483 1483 1476 1474 1473 1471 1469 1467 1465 1464 1462 1461 1459 1457 1456 1455 1454 1453 1453 1453 1453 1452 1452 1452 1452 1452 1451 1451 1451 1451 1451 1452
1490 1494 1495 1493 1490 1491 1489 1486 1488 1489 1489 1488 1485 1481 1474 1473 1472 1470 1468 1467 1465 1463 1461 1460 1458 1456 1455 1453 1452 1451 1450 1450 1450 1449 1448 1448 1448 1448 1447 1447 1447 1446 1446 1446
1492 1494 1494 1491 1492 1489 1486 1482 1484 1485 1484 1483 1481 1476 1473 1472 1471 1470 1468 1466 1464 1462 1460 1458 1456 1454 1453 1451 1450 1448 1448 1447 1447 1446 1445 1445 1444 1444 1443 1443 1442 1442 1441 1441
1490 1491 1493 1493 1493 1489 1477 1477 1477 1479 1478 1478 1475 1473 1472 1471 1469 1467 1466 1465 1463 1461 1459 1456 1454 1452 1451 1449 1448 1447 1445 1445 1444 1443 1442 1441 1441 1440 1440 1439 1438 1438 1437 1437
1486 1488 1492 1494 1493 1485 1477 1476 1478 1479 1475 1473 1473 1471 1471 1469 1467 1464 1464 1463 1462 1460 1457 1455 1452 1450 1448 1447 1445 1444 1443 1442 1441 1440 1439 1439 1438 1437 1436 1435 1434 1434 1433 1432
1487 1488 1492 1494 1490 1485 1475 1476 1474 1477 1476 1471 1470 1470 1470 1469 1469 1465 1462 1461 1459 1457 1455 1452 1450 1448 1446 1444 1443 1442 1440 1439 1438 1437 1437 1436 1435 1434 1433 1432 1431 1431 1430 1429
1490 1492 1492 1493 1491 1481 1477 1475 1475 1479 1475 1471 1469 1469 1469 1468 1468 1464 1460 1458 1456 1454 1452 1450 1447 1445 1444 1442 1441 1439 1438 1437 1436 1435 1434 1433 1432 1432 1431 1429 1429 1428 1427 1426
1487 1490 1492 1492 1490 1482 1475 1475 1477 1475 1471 1470 1468 1467 1466 1465 1463 1461 1458 1456 1453 1451 1449 1447 1444 1443 1441 1440 1438 1436 1435 1434 1433 1432 1431 1430 1429 1428 1427 1427 1426 1425 1424 1423
1485 1483 1482 1482 1479 1475 1473 1472 1472 1471 1470 1468 1467 1465 1464 1462 1460 1458 1455 1453 1451 1448 1446 1444 1442 1440 1439 1438 1436 1434 1433 1432 1430 1429 1428 1427 1426 1425 1425 1424 1423 1422 1421 1420
1482 1481 1481 1480 1474 1472 1471 1470 1470 1469 1468 1466 1465 1464 1462 1460 1458 1455 1453 1450 1448 1446 1444 1441 1439 1437 1436 1435 1433 1432 1430 1429 1428 1426 1425 1424 1423 1422 1422 1421 1420 1419 1418 1417
1479 1480 1480 1478 1473 1470 1468 1468 1468 1467 1466 1464 1463 1461 1460 1458 1455 1453 1451 1448 1446 1443 1441 1439 1437 1435 1433 1432 1430 1429 1428 1426 1425 1424 1423 1422 1421 1420 1419 1418 1418 1416 1416 1416
1476 1477 1477 1473 1470 1470 1468 1466 1466 1464 1463 1462 1460 1458 1457 1455 1453 1451 1449 1446 1444 1441 1439 1437 1435 1433 1431 1429 1428 1427 1425 1424 1422 1421 1420 1419 1418 1418 1416 1415 1415 1414 1414 1413